FW8676 Weather Reports


time (UTC)temp
C
wind
direction
speed
KPH
gust
KPH
rain 1hr
cm
rain 24hr
cm
rain mn
cm
humidity
%
barometer
mb
20260504081555 8 0 0.0 8.0 0.00 0.00 0.00 76 1016.0
20260504050136 10 190 0.0 8.0 0.00 0.00 0.00 60 1015.7
20260504044558 10 0 1.6 6.4 0.00 0.00 0.00 60 1015.8
20260504043058 9 163 1.6 4.8 0.00 0.00 0.00 61 1015.7
20260504041552 8 189 1.6 8.0 0.00 0.00 0.00 63 1015.6
20260504034553 7 0 0.0 1.6 0.00 0.00 0.00 66 1015.3
20260504033057 7 0 0.0 0.0 0.00 0.00 0.00 67 1015.3
20260504031632 7 0 0.0 1.6 0.00 0.00 0.00 67 1015.2
20260504030054 7 0 0.0 0.0 0.00 0.00 0.00 68 1015.1
20260504024559 7 0 0.0 0.0 0.00 0.00 0.00 67 1015.1
20260504023055 7 0 0.0 0.0 0.00 0.00 0.00 68 1015.1
20260504021603 8 0 0.0 0.0 0.00 0.00 0.00 68 1015.2
20260504020051 8 0 0.0 0.0 0.00 0.00 0.00 65 1015.1
20260504014552 8 0 0.0 0.0 0.00 0.00 0.00 64 1015.3
20260504013102 8 0 0.0 0.0 0.00 0.00 0.00 62 1015.1
20260504011600 9 0 0.0 0.0 0.00 0.00 0.00 59 1014.9
20260504010113 10 0 0.0 0.0 0.00 0.00 0.00 56 1014.9
20260504004558 10 0 0.0 0.0 0.00 0.00 0.00 56 1014.7
20260504003055 11 0 0.0 0.0 0.00 0.00 0.00 51 1014.5
20260504001609 12 0 0.0 0.0 0.00 0.00 0.00 48 1014.4
20260504000059 13 0 0.0 1.6 0.00 0.00 0.00 45 1014.1
20260503234603 14 0 0.0 3.2 0.00 0.00 0.00 41 1014.1
20260503233058 15 232 0.0 3.2 0.00 0.00 0.00 39 1014.0
20260503231556 15 234 1.6 11.3 0.00 0.00 0.00 38 1014.0
20260503230059 15 256 0.0 4.8 0.00 0.00 0.00 39 1013.8
20260503224558 15 283 1.6 8.0 0.00 0.00 0.00 36 1013.8
20260503223101 15 335 1.6 11.3 0.00 0.00 0.00 38 1013.9
20260503221559 15 244 1.6 8.0 0.00 0.00 0.00 36 1014.0
20260503220054 15 0 3.2 11.3 0.00 0.00 0.00 36 1013.9
20260503214557 15 318 3.2 14.5 0.00 0.00 0.00 37 1013.9
20260503213133 15 251 4.8 19.3 0.00 0.00 0.00 36 1013.8
20260503211621 16 302 3.2 11.3 0.00 0.00 0.00 36 1013.7
20260503210054 16 252 1.6 17.7 0.00 0.00 0.00 38 1013.8
20260503204622 16 220 3.2 11.3 0.00 0.00 0.00 36 1013.8
20260503203115 15 241 3.2 20.9 0.00 0.00 0.00 37 1014.0
20260503201559 15 245 3.2 12.9 0.00 0.00 0.00 36 1014.2
20260503200059 15 319 3.2 19.3 0.00 0.00 0.00 40 1014.2
20260503194601 15 239 3.2 22.5 0.00 0.00 0.00 41 1014.2
20260503193059 14 284 1.6 19.3 0.00 0.00 0.00 44 1014.4
20260503191603 15 240 4.8 20.9 0.00 0.00 0.00 41 1014.6
20260503190057 15 188 3.2 17.7 0.00 0.00 0.00 37 1014.6
20260503184623 14 229 3.2 17.7 0.00 0.00 0.00 39 1014.8
20260503183105 14 285 8.0 19.3 0.00 0.00 0.00 39 1015.0
20260503181556 13 266 4.8 17.7 0.00 0.00 0.00 43 1014.9
20260503180058 13 39 3.2 22.5 0.00 0.00 0.00 42 1015.1
20260503174610 13 330 6.4 29.0 0.00 0.00 0.00 42 1015.2
20260503173125 13 303 4.8 12.9 0.00 0.00 0.00 45 1015.2
20260503171555 12 0 3.2 17.7 0.00 0.00 0.00 43 1015.4